Location: Sluknov
(51.0170°N, 14.4670°E)
Time: 10:44:48
(UTC+01:00)

ARIANE 6 FM1 Upper Stage - Pass Details

Date: 17 February 2026
Orbit: 523 x 607 km, 62.0° (Epoch: 7 March)

Event Time Altitude Azimuth Distance (km) Brightness Sun altitude
Rises 18:37:18 0° 312° (NW) 2,662 6.8 -12.5°
Reaches altitude 10° 18:39:30 10° 311° (NW) 1,768 5.9 -12.8°
Maximum altitude 18:43:27 77° 226° (SW) 543 2.6 -13.4°
Enters shadow 18:47:17 11° 140° (SE) 1,718 4.8 -14.0°
